OK1ZDJ-13 Weather Reports


time (UTC)temp
C
wind
direction
speed
KPH
gust
KPH
rain 1hr
cm
rain 24hr
cm
rain mn
cm
humidity
%
barometer
mb
20260502221752 8 0.0 0.0 0.00 0.00 0.00 70 1020.1
20260502220752 8 0.0 0.0 0.00 0.00 0.00 68 1020.1
20260502215752 8 0.0 0.0 0.00 0.00 0.00 66 1020.0
20260502214752 8 0.0 0.0 0.00 0.00 0.00 63 1020.1
20260502213756 9 0.0 0.0 0.00 0.00 0.00 61 1019.9
20260502212750 10 0.0 0.0 0.00 0.00 0.00 64 1019.9
20260502211750 10 0.0 0.0 0.00 0.00 0.00 63 1019.9
20260502210750 10 0.0 0.0 0.00 0.00 0.00 62 1020.0
20260502205750 10 0.0 0.0 0.00 0.00 0.00 62 1019.9
20260502204751 10 0.0 0.0 0.00 0.00 0.00 61 1020.0
20260502203750 11 0.0 0.0 0.00 0.00 0.00 60 1020.0
20260502202750 11 0.0 0.0 0.00 0.00 0.00 59 1020.1
20260502201750 11 0.0 0.0 0.00 0.00 0.00 58 1020.1
20260502194750 13 0.0 0.0 0.00 0.00 0.00 53 1020.1
20260502193750 13 0.0 0.0 0.00 0.00 0.00 52 1020.1
20260502192750 14 0.0 0.0 0.00 0.00 0.00 49 1020.1
20260502191750 14 0.0 0.0 0.00 0.00 0.00 49 1020.1
20260502190750 15 0.0 0.0 0.00 0.00 0.00 48 1020.2
20260502184750 16 0.0 0.0 0.00 0.00 0.00 45 1020.1
20260502183750 16 0.0 0.0 0.00 0.00 0.00 43 1020.0
20260502182750 17 0.0 0.0 0.00 0.00 0.00 42 1020.0
20260502181750 18 0.0 0.0 0.00 0.00 0.00 41 1019.8
20260502180750 20 0.0 0.0 0.00 0.00 0.00 36 1019.8
20260502163750 27 0.0 0.0 0.00 0.00 0.00 20 1020.3
20260502162750 27 0.0 0.0 0.00 0.00 0.00 17 1020.5
20260502161750 28 0.0 0.0 0.00 0.00 0.00 15 1020.6
20260502160750 28 0.0 0.0 0.00 0.00 0.00 16 1020.7
20260502151749 31 0.0 0.0 0.00 0.00 0.00 13 1021.2
20260502150749 31 0.0 0.0 0.00 0.00 0.00 14 1021.4
20260502130749 22 0.0 0.0 0.00 0.00 0.00 21 1023.0
20260502123749 22 0.0 0.0 0.00 0.00 0.00 22 1023.5
20260502122749 22 0.0 0.0 0.00 0.00 0.00 22 1023.7
20260502120749 22 0.0 0.0 0.00 0.00 0.00 23 1023.9
20260502115749 22 0.0 0.0 0.00 0.00 0.00 23 1024.0
20260502114749 21 0.0 0.0 0.00 0.00 0.00 24 1024.2
20260502113749 21 0.0 0.0 0.00 0.00 0.00 23 1024.3
20260502112749 21 0.0 0.0 0.00 0.00 0.00 24 1024.5
20260502111749 21 0.0 0.0 0.00 0.00 0.00 23 1024.7
20260502110749 21 0.0 0.0 0.00 0.00 0.00 22 1024.8
20260502105749 21 0.0 0.0 0.00 0.00 0.00 25 1024.9
20260502104749 21 0.0 0.0 0.00 0.00 0.00 23 1025.1
20260502103749 21 0.0 0.0 0.00 0.00 0.00 24 1025.2
20260502102749 21 0.0 0.0 0.00 0.00 0.00 22 1025.4
20260502101749 21 0.0 0.0 0.00 0.00 0.00 24 1025.5
20260502100749 21 0.0 0.0 0.00 0.00 0.00 28 1025.5
20260502090747 19 0.0 0.0 0.00 0.00 0.00 35 1026.2
20260502070747 14 0.0 0.0 0.00 0.00 0.00 51 1027.3
20260502065747 15 0.0 0.0 0.00 0.00 0.00 49 1027.2
20260502064747 16 0.0 0.0 0.00 0.00 0.00 45 1027.2
20260502063747 17 0.0 0.0 0.00 0.00 0.00 42 1027.3
20260502061747 17 0.0 0.0 0.00 0.00 0.00 45 1027.3
20260502060747 15 0.0 0.0 0.00 0.00 0.00 48 1027.3
20260502055747 14 0.0 0.0 0.00 0.00 0.00 53 1027.2
20260502054747 12 0.0 0.0 0.00 0.00 0.00 58 1027.2
20260502053747 10 0.0 0.0 0.00 0.00 0.00 65 1027.2
20260502052747 9 0.0 0.0 0.00 0.00 0.00 70 1027.2
20260502051747 7 0.0 0.0 0.00 0.00 0.00 78 1027.3
20260502050747 4 0.0 0.0 0.00 0.00 0.00 86 1027.2
20260502045747 3 0.0 0.0 0.00 0.00 0.00 85 1027.2
20260502044747 3 0.0 0.0 0.00 0.00 0.00 86 1027.2
20260502043747 2 0.0 0.0 0.00 0.00 0.00 84 1027.2
20260502041748 2 0.0 0.0 0.00 0.00 0.00 82 1027.3
20260502040747 2 0.0 0.0 0.00 0.00 0.00 81 1027.2
20260502034747 2 0.0 0.0 0.00 0.00 0.00 82 1027.2
20260502033752 2 0.0 0.0 0.00 0.00 0.00 80 1027.2
20260502032746 2 0.0 0.0 0.00 0.00 0.00 80 1027.1
20260502031746 2 0.0 0.0 0.00 0.00 0.00 80 1027.2
20260502025746 3 0.0 0.0 0.00 0.00 0.00 83 1027.2
20260502024746 3 0.0 0.0 0.00 0.00 0.00 83 1027.2
20260502023746 3 0.0 0.0 0.00 0.00 0.00 81 1027.3
20260502022746 3 0.0 0.0 0.00 0.00 0.00 81 1027.3
20260502021746 3 0.0 0.0 0.00 0.00 0.00 81 1027.3
20260502020746 3 0.0 0.0 0.00 0.00 0.00 79 1027.2
20260502015746 3 0.0 0.0 0.00 0.00 0.00 79 1027.3
20260502014746 3 0.0 0.0 0.00 0.00 0.00 79 1027.3
20260502013746 3 0.0 0.0 0.00 0.00 0.00 79 1027.2
20260502012746 3 0.0 0.0 0.00 0.00 0.00 80 1027.2
20260502011746 3 0.0 0.0 0.00 0.00 0.00 78 1027.3
20260502005746 4 0.0 0.0 0.00 0.00 0.00 76 1027.3
20260502004746 4 0.0 0.0 0.00 0.00 0.00 75 1027.3
20260502003746 5 0.0 0.0 0.00 0.00 0.00 75 1027.3
20260502002746 5 0.0 0.0 0.00 0.00 0.00 77 1027.3
20260502001746 5 0.0 0.0 0.00 0.00 0.00 77 1027.4
20260502000746 5 0.0 0.0 0.00 0.00 0.00 76 1027.3
20260501235746 5 0.0 0.0 0.00 0.00 0.00 76 1027.4
20260501234746 5 0.0 0.0 0.00 0.00 0.00 75 1027.4
20260501233746 6 0.0 0.0 0.00 0.00 0.00 74 1027.4
20260501232746 6 0.0 0.0 0.00 0.00 0.00 72 1027.5
20260501231746 6 0.0 0.0 0.00 0.00 0.00 70 1027.5
20260501230746 6 0.0 0.0 0.00 0.00 0.00 73 1027.6
20260501225746 7 0.0 0.0 0.00 0.00 0.00 73 1027.6
20260501224746 7 0.0 0.0 0.00 0.00 0.00 73 1027.6
20260501223746 7 0.0 0.0 0.00 0.00 0.00 72 1027.6